THORAD DELTA 1 DEB, 8301

Orbit data source: Space-Track

THORAD DELTA 1 DEB, 8301 is space debris in SSO originally from a launch on Fri, 15 Nov 1974 UTC launched from the Air Force Western Test Range (AFWTR). Debris objects in space refer to the collection of defunct objects orbiting the Earth. Examples of debris include non-operational satellites, rocket bodies, and fragments generated from explosions, collisions, or faulty payload assembly.

Loading next visibility...
Identifier
8301, 1974-089BJ
Orbit
SSO
Country
Flag of USUS
Related business
Manufacturer
Unknown
Mission
Spacecraft
Bus & Motor
Unknown
Mass
Unknown
Launch date (UTC)
1974-11-15 (51 years ago)
Launch vehicle
Unknown
Launch site
Air Force Western Test Range (AFWTR)
Object type
Payload
Rocket body
Debris
Shape & HBR
Unknown shape, 0.1 m
Radar Cross Section
Small (<0.1 m²)

Expand to show TLE details & history
Last TLE update: 15 hours ago

TLE from 15 hours ago
0 THORAD DELTA 1 DEB
1 08301U 74089BJ  26106.77713107  .00060413  00000-0  43454-2 0  9994
2 08301 102.9334 220.0656 0074857 161.9423 198.4466 15.01712070539801
Epoch: 2026-04-16T18:39Z
TLE epoch observation values (Epoch: 2026-04-16T18:39:04.124Z)
Latitude
-0.00002°
Longitude
95.37861°
Altitude
613.798 km
Speed
7.525 km/s
True Right ascension
14h 40m 15s
True Declination
0° 00' 00"
Sunlit
Object was in full shadow at epoch
Visualization orbit readout
Latitude
Unknown
Longitude
Unknown
Altitude
Unknown
Speed
Unknown
Apparent Right ascension
Unknown
Apparent Declination
Unknown
Sunlit
N/A
Visualization observer readout
Local Sidereal Time
15:53:35
Azimuth
Unknown
Elevation
Unknown
Doppler factor
Unknown
Orbital elements
Apogee altitude
610.854 km
Perigee altitude
506.997 km
Semi-major axis
6,937.062 km
Eccentricity
0.00749
Inclination
102.9334°
RAAN
220.0656°
Arg. of periapsis
161.9423°
True anomaly
198.17756°
Mean anomaly
198.4466°
Eccentric anomaly
198.31184°
Mean motion
3.75647 °/min
Orbital period
95.83 mins
BSTAR
0.0043454
Loading maneuver chart data...
Computing Atmospheric mass density...

Documentation

Showing up to 5 results
|